Home > Weather > Chesapeake > Past weeks

Flag for USA Weather for the Past 2 Weeks in Chesapeake, Virginia, USA

Now
58 °F

Partly sunny.


Feels Like: 57 °F
Forecast: 53 / 78 °F
Wind: 7 mph from Southeast

Location: Chesapeake Municipal Airport

Current Time: May 1, 2016 at 9:42:59 AM

Latest Report: May 1, 2016 at 9:15 AM


Visibility: 10 mi

Pressure: 30.14 "Hg

Humidity: 82%

Dew Point: 53 °F

Location of ChesapeakeLocation

Historic Weather in Chesapeake — Graph

°F

Chesapeake Temperature Yesterday

Maximum temperature yesterday: 61 °F (at 4:55 PM)
Minimum temperature yesterday: 52 °F (at 9:15 PM)
Average temperature yesterday: 56 °F

High & Low Weather Summary for the Past Weeks

 TemperatureHumidityPressure
High85 °F (Apr 19, 3:15 PM)99% (Apr 23, 5:35 AM)30.43 "Hg (Apr 23, 5:35 AM)
Low33 °F (Apr 17, 3:15 AM)16% (Apr 19, 12:55 PM)29.76 "Hg (Apr 26, 6:35 PM)
Average61 °F67%30.08 "Hg
* Reported Apr 16 8:15 AM — May 1 8:15 AM, Chesapeake, Weather by CustomWeather, © 2016

Note: Actual official high and low records may vary slightly from our data, if they occured in-between our weather recording intervals... More about our weather records

Advertising

Chesapeake Weather History for the Previous 24 Hours

Scroll right to see more
 ConditionsComfort  
Time TempWeatherWind HumidityBarometerVisibility
8:15 AM
Sun, May 1
56 °FOvercast.6 mph86%30.13 "Hg10 mi
7:55 AM56 °FMore clouds than sun.5 mph86%30.13 "Hg10 mi
7:35 AM56 °FMore clouds than sun.6 mph86%30.14 "Hg10 mi
7:15 AM56 °FMostly cloudy.3 mph88%30.14 "Hg10 mi
6:55 AM55 °FMostly cloudy.No wind87%30.15 "Hg10 mi
6:15 AM54 °FMostly cloudy.No wind89%30.13 "Hg10 mi
5:55 AM54 °FMostly cloudy.No wind89%30.14 "Hg10 mi
5:35 AM55 °FOvercast.3 mph89%30.14 "Hg10 mi
5:15 AM55 °FOvercast.No wind89%30.14 "Hg10 mi
4:55 AM55 °FOvercast.No wind89%30.14 "Hg10 mi
4:15 AM54 °FOvercast.No wind89%30.13 "Hg10 mi
3:55 AM54 °FOvercast.3 mph91%30.13 "Hg10 mi
3:35 AM54 °FOvercast.No wind91%30.14 "Hg10 mi
2:55 AM53 °FPassing clouds.No wind91%30.13 "Hg10 mi
2:15 AM53 °FPassing clouds.3 mph91%30.15 "Hg10 mi
1:55 AM53 °FOvercast.3 mph91%30.16 "Hg10 mi
1:15 AM54 °FOvercast.3 mph88%30.18 "Hg10 mi
12:15 AM53 °FOvercast.No wind89%30.20 "Hg10 mi
11:55 PM
Sat, Apr 30
53 °FOvercast.3 mph89%30.20 "Hg10 mi
11:15 PM53 °FOvercast.6 mph88%30.20 "Hg10 mi
10:15 PM52 °FOvercast.5 mph91%30.22 "Hg10 mi
9:55 PM52 °FOvercast.5 mph91%30.21 "Hg10 mi
9:15 PM52 °FClear.5 mph91%30.22 "Hg10 mi
8:55 PM52 °FPassing clouds.5 mph90%30.21 "Hg10 mi
8:35 PM53 °FScattered clouds.5 mph87%30.21 "Hg10 mi
8:15 PM53 °FSunny.7 mph85%30.21 "Hg10 mi
7:55 PM54 °FSunny.5 mph81%30.20 "Hg10 mi
7:35 PM55 °FSunny.6 mph78%30.20 "Hg10 mi
7:15 PM56 °FSunny.9 mph75%30.19 "Hg10 mi
6:55 PM57 °FSunny.12 mph73%30.18 "Hg10 mi
6:35 PM59 °FScattered clouds.10 mph70%30.18 "Hg10 mi
6:15 PM60 °FScattered clouds.9 mph67%30.18 "Hg10 mi
5:55 PM61 °FScattered clouds.10 mph66%30.18 "Hg10 mi
5:35 PM60 °FPartly sunny.7 mph68%30.18 "Hg10 mi
4:55 PM61 °FOvercast.6 mph67%30.18 "Hg10 mi
4:35 PM60 °FOvercast.6 mph67%30.18 "Hg10 mi
4:15 PM60 °FOvercast.5 mph68%30.18 "Hg10 mi
3:55 PM60 °FOvercast.6 mph67%30.18 "Hg10 mi
3:35 PM60 °FOvercast.No wind69%30.18 "Hg10 mi
3:15 PM60 °FOvercast.6 mph67%30.18 "Hg10 mi
2:55 PM60 °FOvercast.6 mph69%30.18 "Hg10 mi
2:35 PM60 °FOvercast.6 mph69%30.18 "Hg10 mi
2:15 PM59 °FOvercast.5 mph71%30.19 "Hg10 mi
1:55 PM59 °FOvercast.9 mph70%30.18 "Hg10 mi
1:35 PM59 °FOvercast.8 mph71%30.19 "Hg10 mi
1:15 PM59 °FOvercast.6 mph71%30.19 "Hg10 mi
12:55 PM59 °FOvercast.5 mph73%30.19 "Hg10 mi
12:35 PM57 °FOvercast.10 mph76%30.19 "Hg10 mi
12:15 PM57 °FOvercast.8 mph77%30.19 "Hg10 mi
11:55 AM56 °FOvercast.8 mph78%30.18 "Hg10 mi
11:35 AM55 °FOvercast.9 mph80%30.19 "Hg10 mi
11:15 AM55 °FOvercast.8 mph85%30.18 "Hg10 mi
10:55 AM54 °FOvercast.9 mph86%30.18 "Hg10 mi
10:35 AM54 °FLow clouds.9 mph86%30.18 "Hg10 mi
10:15 AM54 °FLow clouds.9 mph88%30.18 "Hg10 mi
9:55 AM54 °FMostly cloudy.10 mph87%30.18 "Hg10 mi
9:35 AM54 °FLow clouds.8 mph90%30.18 "Hg10 mi
9:15 AM54 °FLow clouds.8 mph87%30.18 "Hg10 mi
Weather by CustomWeather, © 2016

See weather overviewHow to use our weather pages